Retour au catalogue

SJ-11-07

ActifScienceSSO
NORAD 40261·PAYLOAD·🇨🇳 China

Lancé Sep 28, 2014 depuis Jiuquan Satellite Launch Center

Loading…

Prochains Passages (prochaines 24 heures)

TLE

FraisSource: Space-Track

Époque: Sep 14, 2026, 15:32 UTC

1 40261U 14059A   26257.64746198  .00000393  00000-0  84136-4 0  9990
2 40261  97.9864 324.2458 0009591 222.9297 137.1158 14.63809932638001

Suivez SJ-11-07 en temps réel avec AllMySat

Download on the App Store